[Iaude] MPEC J95: 2015 VO202 [a=39.34,e=0.25,i=3.3,H=8.8]

mpec at marsden.cfa.harvard.edu mpec at marsden.cfa.harvard.edu
Fri May 7 22:04:27 EDT 2021


M.P.E.C. 2021-J95                                   Issued 2021 May 8, 02:03 UT

     The Minor Planet Electronic Circulars contain information on unusual
         minor planets and routine data on comets.  They are published
    on behalf of Division F of the International Astronomical Union by the
          Minor Planet Center, Smithsonian Astrophysical Observatory,
                          Cambridge, MA 02138, U.S.A.

             Prepared using the Tamkin Foundation Computer Network

                              MPC at CFA.HARVARD.EDU
            URL https://www.minorplanetcenter.net/    ISSN 1523-6714

                                   2015 VO202                                   


Observations:
     K15VK2O RC2015 09 07.62490 03 24 08.958+15 20 43.09         24.9 wVEJ095568
     K15VK2O RC2015 09 12.48855 03 24 01.613+15 19 55.29         24.9 wVEJ095568
     K15VK2O RC2015 10 07.53269 03 22 52.670+15 14 08.83         24.8 wVEJ095568
     K15VK2O RC2015 10 07.59208 03 22 52.442+15 14 07.89         24.8 wVEJ095568
     K15VK2O RC2015 10 09.57195 03 22 45.024+15 13 34.41         24.8 wVEJ095568
     K15VK2O*RC2015 11 06.34408 03 20 41.025+15 04 59.34         24.4 rVEJ095568
     K15VK2O RC2015 11 06.41470 03 20 40.676+15 04 57.78         25.2 rVEJ095568
     K15VK2O RC2015 11 06.48426 03 20 40.317+15 04 56.79         24.8 rVEJ095568
     K15VK2O RC2015 11 07.50182 03 20 35.311+15 04 37.28         25.2 wVEJ095568
     K15VK2O RC2015 11 17.48361 03 19 45.645+15 01 28.26         24.8 wVEJ095568
     K15VK2O RC2015 11 17.57138 03 19 45.188+15 01 26.50         25.5 wVEJ095568
     K15VK2O RC2015 12 06.34926 03 18 14.585+14 56 03.14         25.5 wVEJ095568
     K15VK2O RC2015 12 06.48675 03 18 13.958+14 56 00.97         24.9 wVEJ095568
     K15VK2O RC2015 12 31.37031 03 16 36.980+14 51 01.53         24.9 wVEJ095568
     K15VK2O RC2016 01 07.39971 03 16 17.257+14 50 13.71         25.1 wVEJ095568
     K15VK2O RC2016 02 05.29926 03 15 42.737+14 50 16.48         24.5 wVEJ095568
     K15VK2O RC2016 02 11.25262 03 15 45.626+14 50 58.18         25.2 wVEJ095568
     K15VK2O RC2016 09 07.58521 03 29 02.885+15 40 14.88         25.1 wVEJ095568
     K15VK2O RC2016 09 27.51883 03 28 20.683+15 36 25.59         25.2 wVEJ095568
     K15VK2O RC2016 09 29.49637 03 28 14.737+15 35 57.08         24.3 wVEJ095568
     K15VK2O RC2016 10 05.49953 03 27 54.899+15 34 26.27         25.2 wVEJ095568
     K15VK2O RC2016 10 07.50403 03 27 47.744+15 33 54.78         25.3 wVEJ095568
     K15VK2O RC2016 10 07.59973 03 27 47.353+15 33 52.84         25.0 wVEJ095568
     K15VK2O RC2016 10 09.50422 03 27 40.290+15 33 22.11         25.2 wVEJ095568
     K15VK2O RC2016 10 09.57681 03 27 40.026+15 33 20.04               VEJ095568
     K15VK2O RC2016 10 10.54805 03 27 36.330+15 33 04.65               VEJ095568
     K15VK2O RC2016 10 10.59680 03 27 36.144+15 33 03.81         25.1 wVEJ095568
     K15VK2O RC2016 11 02.49102 03 25 55.334+15 26 13.60         24.8 wVEJ095568
     K15VK2O RC2016 11 04.46713 03 25 45.750+15 25 36.71         24.9 wVEJ095568
     K15VK2O RC2017 09 16.59057 03 33 41.773+15 57 52.94         25.1 wVEJ095568
     K15VK2O RC2017 09 23.53642 03 33 26.365+15 56 32.90         25.3 wVEJ095568
     K15VK2O RC2017 12 13.36708 03 27 36.294+15 34 35.65         24.9 wVEJ095568

Observer details:
568 Mauna Kea.  Observer .  Measurers E. J. Ashton, J. J. Kavelaars, B. J.
    Gladman.  3.6-m Canada-France-Hawaii Telescope + CCD.

Orbital elements:
2015 VO202                                                                      
Epoch 2021 July 5.0 TT = JDT 2459400.5                  Alexandersen              
M 101.39392              (2000.0)            P               Q                  
n   0.00399383     Peri.  168.36167     +0.36591492     +0.92938412             
a  39.3437983      Node   123.08479     -0.85843013     +0.35718635             
e   0.2481811      Incl.    3.31786     -0.35944957     +0.09307561             
P 247              H    8.80          G   0.15           U   6                  
Residuals in seconds of arc
150907 568  0.0   0.1+    151206 568  0.1-  0.1+    161007 568  0.1-  0.1-
150912 568  0.1-  0.0     151206 568  0.1+  0.1+    161009 568  0.1-  0.2+
151007 568  0.1+  0.0     151231 568  0.0   0.0     161009 568  0.1+  0.7-
151007 568  0.0   0.1+    160107 568  0.1-  0.1+    161010 568  0.1+  0.0
151009 568  0.1-  0.1-    160205 568  0.1+  0.2-    161010 568  0.1+  0.0
151106 568  0.0   0.1-    160211 568  0.1-  0.0     161102 568  0.2-  0.0
151106 568  0.1+  0.3-    160907 568  0.0   0.1+    161104 568  0.1-  0.0
151106 568  0.1-  0.0     160927 568  0.1-  0.1+    170916 568  0.1-  0.0
151107 568  0.1+  0.1+    160929 568  0.1+  0.2-    170923 568  0.0   0.1+
151117 568  0.1+  0.2+    161005 568  0.0   0.1-    171213 568  0.0   0.1+
151117 568  0.1-  0.1+    161007 568  0.3+  0.3+

Ephemeris:
2015 VO202               a,e,i = 39.34, 0.25, 3                  q = 29.5794
Date    TT    R. A. (2000) Decl.     Delta      r    Elong.  Phase     V
2021 04 08    03 42 23.0 +16 38 54  44.0914 43.3198    39.2     0.8    25.3
...
2021 04 23    03 43 42.2 +16 43 54  44.2383 43.3283    24.9     0.6    25.3
...
2021 05 01    03 44 28.2 +16 46 40  44.2933 43.3328    17.4     0.4    25.3
...
2021 05 07    03 45 03.9 +16 48 44  44.3233 43.3362    11.8     0.3    25.3
2021 05 08    03 45 09.9 +16 49 05  44.3273 43.3368    10.9     0.3    25.3
2021 05 09    03 45 15.9 +16 49 26  44.3311 43.3373    10.0     0.2    25.3
...
2021 05 15    03 45 52.4 +16 51 29  44.3478 43.3407     4.9     0.1    25.3
...
2021 05 23    03 46 41.5 +16 54 10  44.3543 43.3452     4.6     0.1    25.3
...
2021 06 07    03 48 12.1 +16 58 53  44.3188 43.3537    17.8     0.4    25.3

M. P. C. Staff               (C) Copyright 2021 MPC           M.P.E.C. 2021-J95




More information about the Iaude mailing list